Hauptseite
METAR-TAF:

METAR-TAF

Flughäfen :

Dübendorf, Schweiz

Militärflugplatz Dübendorf

Breite: 47-23-55N, Länge: 8-38-53E, Höhe: 448 m

Beobachtung

Neuester Wetterbericht von vor 58 Minuten, um 05:50 UTC
Wind 4 kt aus Südost
Temperatur 12°C
Luftfeuchtigkeit 71%
Luftdruck 1018 hPa
Sichtweite 10 km oder mehr

METAR: LSMD 220550Z AUTO 13004KT 9999NDV NCD 12/07 Q1018 RMK

Zeit: 08:48 (06:48 UTC)


TAF: fehlend

Wetterbeobachtungen und Prognosen von mehr als 4000 Flughäfen (METAR und TAF Bericht).

Die verfügbaren Stationen werden durch gelbe und rote Markierungen auf der Karte dargestellt.

Führen Sie die Maus auf sie, um den Namen der Station zu sehen.

Darauf klicken, um die Beobachtung von Wetterbeobachtungen und Prognosen zu sehen.

Um die Karte zu ändern : klicken Sie auf den grünen Tasten mit einem schwarzen Kreuz Zum Vergrößern, auf den grünen Button mit einem Gedankenstrich zu verkleinern, oder auf die grünen Pfeile für benachbarte Karten.


METAR-TAF: